Rayong, Thailand

3:29 AM +07 on June 29, 2017 (GMT +0700)
U-Taphao International

Weather History for VTBU - October, 2012

Change the Weather History Date:

Wednesday, October 10, 2012

  Actual Average Record
Temperature  
Mean Temperature 82 °F -  
Max Temperature 86 °F 87 °F 93 °F (2010)
Min Temperature 77 °F 76 °F 68 °F (2003)
Cooling Degree Days 16    
Growing Degree Days 32 (Base 50)    
Moisture  
Dew Point 74 °F    
Average Humidity 80    
Maximum Humidity 89    
Minimum Humidity 62    
Precipitation  
Precipitation 0.00 in - - ()
Sea Level Pressure  
Sea Level Pressure 29.85 in    
Wind  
Wind Speed 2 mph ()    
Max Wind Speed 9 mph    
Max Gust Speed -    
Visibility 5.2 miles    
Events Rain , Thunderstorm    
Averages and records for this station are not official NWS values.
T = Trace of Precipitation, MM = Missing Value Source: Averaged Metar Reports

Daily Weather History Graph

Daily Weather History Graph

Search for Another Location

Airport or City:

Trip Planner

Search our weather history database for the weather conditions in past years. The results will help you decide how hot, cold, wet, or windy it might be!

Date:

Astronomy

Oct. 10, 2012 Rise Set
Actual Time 6:04 AM +07 5:58 PM +07
Civil Twilight 5:42 AM +07 6:20 PM +07
Nautical Twilight 5:18 AM +07 6:44 PM +07
Astronomical Twilight 4:53 AM +07 7:09 PM +07
Moon 1:03 AM +07 (10/10) 1:53 PM +07 (10/10)
Length of Visible Light 12h 37m
Length of Day
11h 54m
Waning Crescent, 31% of the Moon is Illuminated
Oct 10
Waning Crescent
Oct 15
New
Oct 22
First Quarter
Oct 30
Full
Nov 7
Last Quarter

Hourly Weather History & Observations

Time (+07) Temp. Heat Index Dew Point Humidity Pressure Visibility Wind Dir Wind Speed Gust Speed Precip Events Conditions
12:00 AM 77.0 °F - 73.4 °F 89% 29.86 in 5.6 mi Calm Calm - N/A   Mostly Cloudy
12:30 AM 77.0 °F - 73.4 °F 89% 29.86 in 5.6 mi Calm Calm - N/A   Mostly Cloudy
1:00 AM 77.0 °F - 73.4 °F 89% 29.86 in 5.6 mi Calm Calm - N/A   Mostly Cloudy
1:30 AM 77.0 °F - 73.4 °F 89% 29.83 in 5.6 mi Calm Calm - N/A   Mostly Cloudy
2:00 AM 77.0 °F - 73.4 °F 89% 29.83 in 5.6 mi Calm Calm - N/A   Mostly Cloudy
2:30 AM 77.0 °F - 73.4 °F 89% 29.83 in 5.6 mi Calm Calm - N/A   Mostly Cloudy
3:00 AM 77.0 °F - 73.4 °F 89% 29.83 in 5.6 mi Calm Calm - N/A   Mostly Cloudy
3:30 AM 77.0 °F - 73.4 °F 89% 29.83 in 5.6 mi Calm Calm - N/A   Mostly Cloudy
6:00 AM 77.0 °F - 73.4 °F 89% 29.86 in 5.6 mi Calm Calm - N/A   Mostly Cloudy
6:30 AM 77.0 °F - 73.4 °F 89% 29.86 in 5.0 mi Calm Calm - N/A   Mostly Cloudy
7:00 AM 77.0 °F - 73.4 °F 89% 29.86 in 5.0 mi Calm Calm - N/A   Mostly Cloudy
7:30 AM 78.8 °F - 75.2 °F 89% 29.89 in 5.0 mi North 3.5 mph - N/A   Mostly Cloudy
8:00 AM 78.8 °F - 75.2 °F 89% 29.89 in 5.6 mi NNE 3.5 mph - N/A   Mostly Cloudy
8:30 AM 82.4 °F 89.5 °F 75.2 °F 79% 29.89 in 5.0 mi North 3.5 mph - N/A   Mostly Cloudy
9:00 AM 84.2 °F 90.9 °F 73.4 °F 70% 29.92 in 6.2 mi NNW 3.5 mph - N/A   Mostly Cloudy
9:30 AM 84.2 °F 90.9 °F 73.4 °F 70% 29.92 in 6.2 mi NW 3.5 mph - N/A   Mostly Cloudy
10:00 AM 86.0 °F 91.8 °F 71.6 °F 62% 29.92 in 6.2 mi Calm Calm - N/A   Mostly Cloudy
10:30 AM 84.2 °F 90.9 °F 73.4 °F 70% 29.89 in 6.2 mi Calm Calm - N/A   Mostly Cloudy
11:00 AM 84.2 °F 90.9 °F 73.4 °F 70% 29.89 in 5.0 mi West 6.9 mph - N/A Rain Light Rain Showers
11:30 AM 80.6 °F 85.4 °F 73.4 °F 79% 29.89 in 5.0 mi West 6.9 mph - N/A Rain Light Rain Showers
12:00 PM 80.6 °F 84.6 °F 71.6 °F 74% 29.86 in 5.6 mi NW 6.9 mph - N/A   Mostly Cloudy
12:30 PM 84.2 °F 90.9 °F 73.4 °F 70% 29.86 in 5.6 mi North 9.2 mph - N/A   Mostly Cloudy
1:00 PM 82.4 °F 88.2 °F 73.4 °F 74% 29.83 in 5.0 mi NNE 6.9 mph - N/A Thunderstorm Thunderstorm
1:30 PM 80.6 °F 85.4 °F 73.4 °F 79% 29.83 in 5.0 mi NE 6.9 mph - N/A Thunderstorm Thunderstorm
2:00 PM 82.4 °F 88.2 °F 73.4 °F 74% 29.80 in 5.0 mi NE 6.9 mph - N/A   Mostly Cloudy
2:30 PM 84.2 °F 90.9 °F 73.4 °F 70% 29.80 in 5.0 mi NNW 6.9 mph - N/A   Mostly Cloudy
3:00 PM 86.0 °F 93.4 °F 73.4 °F 66% 29.77 in 5.0 mi NNW 6.9 mph - N/A   Mostly Cloudy
3:30 PM 86.0 °F 93.4 °F 73.4 °F 66% 29.77 in 5.0 mi NNW 6.9 mph - N/A   Mostly Cloudy
4:00 PM 84.2 °F 90.9 °F 73.4 °F 70% 29.77 in 5.0 mi NNE 4.6 mph - N/A   Mostly Cloudy
4:30 PM 84.2 °F 90.9 °F 73.4 °F 70% 29.77 in 4.3 mi NE 4.6 mph - N/A   Mostly Cloudy
5:00 PM 84.2 °F 90.9 °F 73.4 °F 70% 29.77 in 5.0 mi NNE 4.6 mph - N/A   Mostly Cloudy
5:30 PM 82.4 °F 88.2 °F 73.4 °F 74% 29.80 in 5.0 mi NE 4.6 mph - N/A   Mostly Cloudy
6:00 PM 82.4 °F 88.2 °F 73.4 °F 74% 29.80 in 5.0 mi Calm Calm - N/A   Mostly Cloudy
6:30 PM 82.4 °F 88.2 °F 73.4 °F 74% 29.80 in 5.0 mi Calm Calm - N/A   Mostly Cloudy
7:00 PM 82.4 °F 89.5 °F 75.2 °F 79% 29.83 in 5.0 mi Calm Calm - N/A   Mostly Cloudy
7:30 PM 80.6 °F 86.2 °F 75.2 °F 84% 29.83 in 5.0 mi North 3.5 mph - N/A   Mostly Cloudy
8:00 PM 80.6 °F 86.2 °F 75.2 °F 84% 29.83 in 5.0 mi Calm Calm - N/A   Mostly Cloudy
8:30 PM 80.6 °F 86.2 °F 75.2 °F 84% 29.86 in 5.0 mi Calm Calm - N/A   Mostly Cloudy
9:00 PM 80.6 °F 86.2 °F 75.2 °F 84% 29.86 in 5.0 mi Calm Calm - N/A   Mostly Cloudy
9:30 PM 78.8 °F - 75.2 °F 89% 29.86 in 5.0 mi Calm Calm - N/A   Mostly Cloudy
10:00 PM 78.8 °F - 73.4 °F 83% 29.89 in 4.3 mi Calm Calm - N/A   Mostly Cloudy
10:30 PM 78.8 °F - 75.2 °F 89% 29.86 in 5.0 mi Calm Calm - N/A   Mostly Cloudy
11:00 PM 78.8 °F - 73.4 °F 83% 29.89 in 4.3 mi Calm Calm - N/A   Mostly Cloudy
11:30 PM 78.8 °F - 73.4 °F 83% 29.86 in 3.7 mi Calm Calm - N/A   Mostly Cloudy